COSMOS 1375 DEB, 19453

Orbit data source: Space-Track

COSMOS 1375 DEB, 19453 is space debris in LEO originally from a launch on Sun, 06 Jun 1982 UTC launched from the Plesetsk Missile And Space Complex (PKMTR). Debris objects in space refer to the collection of defunct objects orbiting the Earth. Examples of debris include non-operational satellites, rocket bodies, and fragments generated from explosions, collisions, or faulty payload assembly.

Loading next visibility...
Identifier
19453, 1982-055BL
Orbit
LEO
Country
Flag of CISCIS
Related business
Manufacturer
Unknown
Mission
Spacecraft
Bus & Motor
Unknown
Mass
Unknown
Launch date (UTC)
1982-06-06 (44 years ago)
Launch vehicle
Unknown
Launch site
Plesetsk Missile And Space Complex (PKMTR)
Object type
Payload
Rocket body
Debris
Shape & HBR
Unknown shape, 0.1 m
Radar Cross Section
Small (<0.1 m²)

Expand to show TLE details & history
Last TLE update: 2 days ago

TLE from 2 days ago
0 COSMOS 1375 DEB
1 19453U 82055BL  26171.35251006  .00002473  00000-0  73213-3 0  9996
2 19453  65.8005 305.0230 0033300  79.5362 311.1400 14.44852023972766
Epoch: 2026-06-20T08:27Z
TLE epoch observation values (Epoch: 2026-06-20T08:27:36.869Z)
Latitude
27.53544°
Longitude
-76.97262°
Altitude
729.453 km
Speed
7.502 km/s
True Right ascension
21h 13m 59s
True Declination
27° 23' 39"
Sunlit
Object was in daylight at epoch
Visualization orbit readout
Latitude
Unknown
Longitude
Unknown
Altitude
Unknown
Speed
Unknown
Apparent Right ascension
Unknown
Apparent Declination
Unknown
Sunlit
N/A
Visualization observer readout
Local Sidereal Time
00:39:33
Azimuth
Unknown
Elevation
Unknown
Doppler factor
Unknown
Orbital elements
Apogee altitude
764.69 km
Perigee altitude
717.277 km
Semi-major axis
7,119.12 km
Eccentricity
0.00333
Inclination
65.8005°
RAAN
305.023°
Arg. of periapsis
79.5362°
True anomaly
310.85184°
Mean anomaly
311.14°
Eccentric anomaly
310.996°
Mean motion
3.6133 °/min
Orbital period
99.63 mins
BSTAR
0.00073213
Loading maneuver chart data...
Computing Atmospheric mass density...
Loading historical data...
Loading historical data...
Loading historical data...
Loading historical data...
Loading historical data...
Loading historical data...
Loading historical data...

Documentation

Showing up to 5 results
|